Weather in Idrica

Russia / Pskov Oblast     56°19′55″N   28°53′13″E
temp.,
°C
wind,
m/s
gust,
m/s
humid.,
%
clouds,
%
prec.,
mm/h
press.,
hPa
HPBL,
m
15 may, sat
sat1500:00+10e269655 0.0 1006114
03:00+10e2498100 0.3 1005103
06:00+11ese1198100 1.8 100535
09:00+12w1194100 1.8 1005149
12:00+18wsw136931 0.2 10051001
15:00+18wsw3476100 3.3 1004871
18:00+16wsw258785 3.2 1004335
21:00+13w239488 5.8 100566
16 may, sun
sun1600:00+11w259729 0.0 100696
03:00+10wnw269836 0.0 1007129
06:00+9w23955 0.0 100978
09:00+14w237326 0.0 1010367
12:00+19sw235235 0.0 10101424
15:00+21sw344699 0.0 10092124
18:00+17ssw257859 0.6 1010337
21:00+14se228899 1.0 101021
17 may, mon
mon1700:00+11sse279532 0.0 1010139
03:00+11se279599 0.0 1010140
06:00+12se31194100 0.0 1010253
09:00+17se51177100 0.0 1009624
12:00+20sse5857100 0.0 10081331
15:00+20sse4659100 0.1 10071365
18:00+16sw1288100 1.1 100789
21:00+13nnw489899 7.9 1005440
18 may, tue
tue1800:00+12n2399100 0.6 100488
03:00+12n3899100 2.3 1001289
06:00+13n3699100 1.1 999318
09:00+13nne2699100 2.0 997347
12:00+14nw1399100 3.2 995266
15:00+12w7149399 15.1 999918
18:00+12sw479599 0.3 1002570
21:00+11ssw229774 0.3 100446
19 may, wed
wed1900:00+9sse119696 0.0 100610
03:00+9sse2296100 0.0 100521
06:00+10sw1398100 0.9 1006131
09:00+12w2392100 1.1 1006420
12:00+13w458993 0.7 1006635
15:00+14wnw4678100 1.3 1006868
18:00+15nw3673100 0.6 10061042
21:00+11w3892100 0.8 1007210